Regional Weather Roundup
Issued by NWS

Home | Current Version | Previous Version | Graphics & Text | Print | Product List | Glossary On
Versions: 1 2 3 4 5 6 7 8 9 10 11 12 13 14 15 16 17 18 19 20 21 22 23 24 25 26 27 28 29 30 31 32 33 34 35 36 37 38 39 40 41 42 43 44 45 46 47 48 49
000
ASUS45 KBOU 210307
RWRCO

WEATHER ROUNDUP FOR COLORADO
NATIONAL WEATHER SERVICE DENVER/BOULDER CO
900 PM MDT SAT SEP 20 2014

NOTE: "FAIR" INDICATES FEW OR NO CLOUDS BELOW 12000 FEET WITH NO
SIGNIFICANT WEATHER AND/OR OBSTRUCTIONS TO VISIBILITY.

COZ001>005-013-030-031-210400-
...NORTHWEST COLORADO...

CITY           SKY/WX    TMP DP  RH WIND       PRES   REMARKS
CRAIG          CLEAR     54  34  46 CALM      30.25R
HAYDEN         CLEAR     59  27  29 SW7       30.27R
MEEKER         CLEAR     59  37  44 SE6       30.25R
MOUNT WERNER   NOT AVBL
STEAMBOAT SPGS CLEAR     62  35  36 CALM      30.29R
WALDEN         CLEAR     55  37  50 E7        30.40R
$$

COZ006>008-011-210400-
...WEST CENTRAL VALLEYS...

CITY           SKY/WX    TMP DP  RH WIND       PRES   REMARKS
GRAND JUNCTION MOCLDY    80  34  19 S12       30.08R
MONTROSE       MOCLDY    69  49  48 SE7       30.18S
EAGLE          PTCLDY    72  32  23 NW6       30.29R
RIFLE          PTCLDY    74  41  30 SE20      30.17R
DELTA          MOCLDY    78  40  26 E6        30.15S
NUCLA          MOCLDY    70  41  35 SE9       30.19S
$$

COZ017>023-064>068-210400-
...SOUTHWEST COLORADO...

CITY           SKY/WX    TMP DP  RH WIND       PRES   REMARKS
DURANGO        CLOUDY    72  40  31 NE14      30.21S
CORTEZ         CLEAR     70  49  47 N3        30.14R
PAGOSA SPRINGS CLOUDY    70  35  28 NE5       30.33S
TELLURIDE      NOT AVBL
WOLF CREEK PAS CLOUDY    46  36  66 E3        30.66R
$$

COZ009-010-012-014-032>034-037-058>063-210400-
...CENTRAL COLORADO...

CITY           SKY/WX    TMP DP  RH WIND       PRES   REMARKS
ASPEN          CLOUDY    58  49  72 SE12      30.41R
BUENA VISTA    TSTM      56  48  72 NE7       30.49R
COPPER MTN     MOCLDY    52  36  54 S18       30.69R
BERTHOUD PASS  FAIR      37  36  93 E28       30.74S FOG
COTTONWOOD PAS CLOUDY    54  45  71 SE5       30.60R THUNDER
GUNNISON       CLOUDY    64  37  36 NE7       30.39R
KREMMLING      MOCLDY    64  37  36 SW5       30.37R
LEADVILLE      CLOUDY    54  37  52 SE3       30.56R
SALIDA         CLOUDY    64  47  55 NW15G25   30.49R
SUNLIGHT       MOCLDY    54  37  54 SE6       30.60R
WILKERSON PASS NOT AVBL
$$

COZ069>075-210400-
...SAN LUIS VALLEY/SANGRE DE CRISTO MOUNTAINS...

CITY           SKY/WX    TMP DP  RH WIND       PRES   REMARKS
ALAMOSA        PTCLDY    67  41  38 E16G26    30.34R
LA VETA PASS   PTCLDY    52  43  71 NE20G29   30.56R
SAGUACHE       NOT AVBL
$$

COZ035-036-038>040-210400-
...NORTHERN COLORADO FRONT RANGE...

CITY           SKY/WX    TMP DP  RH WIND       PRES   REMARKS
DENVER INTL AP MOCLDY    63  50  62 E6        30.31R
DMNS CITY PARK   N/A     69  51  51 S7G17     30.33R
AURORA         MOCLDY    65  50  57 S7        30.34R
FRONT RANGE AP NOT AVBL
ERIE MUNI ARPT MOCLDY    65  48  52 CALM      30.29R
BOULDER MUN AP MOCLDY    64  50  59 CALM      30.30R
CENTENNIAL     TSTM      63  54  72 SW8       30.36R
BROOMFIELD     PTCLDY    70  48  46 SE3       30.34R
FORT COLLINS   CLEAR     66  48  52 SE7       30.29R
LONGMONT       MOCLDY    64  53  66 CALM      30.31R
$$

COZ041-046-047-076>085-087-088-210400-
...PIKES PEAK/PALMER DIVIDE AND SOUTHERN FOOTHILLS...

CITY           SKY/WX    TMP DP  RH WIND       PRES   REMARKS
COLO. SPRINGS  CLOUDY    70  46  42 NE10      30.35R
A. F. ACADEMY  CLOUDY    68  48  49 N7        30.38R HAZE
ELLICOTT       NOT AVBL
FALCON         MOCLDY    63  46  54 NE6       30.41R
FORT CARSON    CLOUDY    71  48  44 NE3       30.32R
LIMON          PTCLDY    63  47  55 E8        30.31R
MONUMENT HILL  CLOUDY    63  45  51 E3        30.41R
TRINIDAD       CLEAR     69  46  43 NE6       30.27R
$$

COZ042>045-048>051-090-091-210400-
...NORTHEAST COLORADO...

CITY           SKY/WX    TMP DP  RH WIND       PRES   REMARKS
GREELEY ARPT   CLEAR     66  48  52 E5        30.28R
AKRON          CLEAR     63  49  60 S7        30.26R
BURLINGTON     CLEAR     65  49  56 N6        30.23R
WRAY           CLEAR     65  50  59 CALM      30.20R
STERLING       CLEAR     66  52  59 N3        30.24R
HOLYOKE        CLEAR     63  46  55 N8        30.21R
FORT MORGAN    CLEAR     69  48  48 E5        30.26R
$$

COZ086-089-092>099-210400-
...SOUTHEAST COLORADO...

CITY           SKY/WX    TMP DP  RH WIND       PRES   REMARKS
PUEBLO         PTCLDY    74  47  38 E13       30.22R
LA JUNTA       CLEAR     73  50  44 E10       30.19R
LAMAR          CLEAR     67  52  58 NE7       30.16R
SPRINGFIELD      N/A     70  55  59 NE10      30.19R
$$



USA.gov is the U.S. government's official web portal to all federal, state and local government web resources and services.